THEOS

Last updated on Thu Jul 03 2025 00:02:29 GMT+0000 (Coordinated Universal Time)

1 33396U 08049A 25183.56949028 .00000030 00000+0 34370-4 0 9990 2 33396 98.6084 246.2500 0001077 93.2507 266.8793 14.20053406868346
UTC large
Height (km)
Speed (km/s)
/
Latitude / Longitude
Inclination (degrees)
Orbital Period (minutes)
Azimuth
Elevation
Range (km)
Doppler Factor

Next 0 passes for location: London (51.5072 / 0.1276)

Sorry there are no passes over London.